CAPE
nan nan nan nan nan nan nan nan nan nan nan nan nan nan nan nan nan nan nan nan nan nan nan nan nan nan nan nan nan nan 1 2 2 2 1 1 0 0 0 2 2 1 nan nan nan 0 0 0 0 0 0 1 3 3 6 7 7 13 17 16 16 26 30 32 32 34 35 25 15 15 7 4 2 2 0 nan nan nan nan nan nan nan nan nan nan nan
nan nan nan nan nan nan nan nan nan nan nan nan nan nan nan nan nan nan nan nan nan nan nan nan nan nan nan nan 1 1 5 9 5 5 6 3 1 1 nan 2 2 2 1 nan nan nan nan nan nan nan nan 0 0 0 1 1 1 3 3 6 6 20 36 38 38 38 34 25 11 11 5 2 0 0 nan nan nan nan nan nan nan nan nan nan nan nan
nan nan nan nan nan nan nan nan nan nan nan nan nan nan nan nan nan nan nan nan nan nan nan nan nan nan nan 0 1 1 0 9 9 9 7 3 0 0 nan 1 1 4 1 nan nan nan nan nan nan nan nan nan nan nan 0 0 0 0 0 0 0 5 19 29 29 28 19 10 4 4 2 1 0 0 nan nan nan nan nan nan nan nan nan nan nan nan
nan nan nan nan nan nan nan nan nan nan nan nan nan nan nan nan nan nan nan nan nan nan nan nan nan nan nan 0 1 1 1 nan 5 5 5 3 1 1 nan 1 1 2 1 nan nan nan nan nan nan nan nan nan nan nan nan 0 0 nan nan nan nan nan 0 2 2 1 1 0 nan nan nan 0 0 0 0 0 nan nan nan nan nan nan nan nan nan nan
nan nan nan nan nan nan nan nan nan nan nan nan nan nan nan nan nan nan nan nan nan nan nan nan nan nan nan nan 0 0 1 1 nan nan 4 3 3 3 1 nan nan nan nan nan nan nan nan nan nan nan nan nan nan nan nan nan nan nan nan nan nan nan nan nan nan nan nan nan nan nan nan nan 0 0 nan 0 nan nan nan nan nan nan nan nan nan nan
nan nan nan nan nan nan nan nan nan nan nan nan nan nan nan nan nan nan nan nan nan nan nan nan nan nan nan nan 0 0 0 0 1 1 4 4 3 3 1 1 1 0 0 0 0 nan nan nan nan nan nan nan nan nan nan nan nan nan nan nan nan nan nan nan nan nan nan nan nan nan nan nan nan nan nan nan nan nan nan nan nan nan nan nan nan nan
nan nan nan nan nan nan nan nan nan nan nan nan nan nan nan nan nan nan nan nan nan nan nan nan nan nan nan nan 0 0 0 nan nan nan 3 4 2 2 2 2 2 1 1 0 0 0 nan nan nan nan nan nan nan nan nan 0 0 nan nan nan nan nan nan nan nan nan nan nan nan nan nan nan nan nan nan nan nan nan nan nan nan nan nan nan nan nan
nan nan nan nan nan nan nan nan nan nan nan nan nan nan nan nan nan nan nan nan nan nan nan nan nan nan nan nan nan nan nan nan nan nan nan 0 1 1 2 2 2 2 1 2 2 2 1 0 0 nan nan nan nan nan nan nan nan nan nan nan nan nan nan nan nan nan nan nan nan nan nan nan nan nan nan nan nan nan nan nan nan nan nan nan nan nan
nan nan nan nan nan nan nan nan nan nan nan nan nan nan nan nan nan nan nan nan nan nan nan 0 0 nan nan nan nan nan nan 0 nan nan nan nan nan nan 2 3 3 3 3 3 3 3 1 0 0 nan nan nan nan nan nan nan nan nan nan nan nan nan nan nan nan nan nan nan nan nan nan nan nan nan nan nan nan nan nan nan nan nan nan nan nan nan
nan nan nan nan nan nan nan nan nan nan nan nan nan nan nan nan nan nan nan nan nan nan nan nan nan 0 nan nan nan nan nan nan nan nan 0 nan 1 1 0 nan nan 1 3 4 4 3 1 1 1 0 nan nan nan nan nan nan nan nan nan nan nan nan nan nan nan nan nan nan nan nan nan nan nan nan nan nan nan nan nan nan nan nan nan nan nan nan
nan nan nan nan nan nan nan nan nan nan nan nan nan nan nan nan nan nan nan nan nan nan nan nan nan nan 0 nan nan nan nan nan nan nan nan nan nan nan nan nan nan 1 3 3 3 2 2 1 1 0 nan nan nan nan nan nan nan nan nan nan nan nan nan nan nan nan nan nan nan nan nan nan nan nan nan nan nan nan nan nan nan nan nan nan nan nan
nan nan nan nan nan nan nan nan nan nan nan nan nan nan nan nan nan nan nan nan nan nan nan nan nan nan nan nan nan nan nan nan nan nan nan nan nan nan nan nan nan 0 2 6 6 3 2 1 1 0 nan nan nan nan nan nan nan nan nan nan nan nan nan nan nan nan nan nan nan nan nan nan nan nan nan nan nan nan nan nan nan nan nan nan nan nan
nan nan nan nan nan nan nan nan nan nan nan nan nan nan nan nan nan nan nan nan nan nan nan nan nan nan nan nan nan nan nan nan nan nan nan nan nan nan nan nan nan nan nan nan nan nan 3 2 2 0 nan nan nan nan nan nan nan nan nan nan nan nan nan nan nan nan nan nan nan nan nan nan nan nan nan nan nan nan nan nan nan nan nan nan nan nan
nan nan nan nan nan nan nan nan nan nan nan nan nan nan nan nan nan nan nan nan nan nan nan nan nan nan nan nan nan nan nan nan nan nan nan nan nan nan nan nan nan nan nan nan nan nan nan nan nan nan 1 nan nan nan nan nan nan nan nan nan nan nan nan nan nan nan nan nan nan nan nan nan nan nan nan nan nan nan nan nan nan nan nan nan nan nan
nan nan nan nan nan nan nan nan nan nan nan nan nan nan nan nan nan nan nan nan nan nan nan nan nan nan nan nan nan nan nan nan nan nan nan nan nan nan nan nan nan nan nan nan nan nan nan nan nan nan nan nan nan nan nan nan nan nan nan nan nan nan nan nan nan nan nan nan nan nan nan nan nan nan nan nan nan nan nan nan nan nan nan nan nan nan
nan nan nan nan nan nan nan nan nan nan nan nan nan nan nan nan nan nan nan nan nan nan nan nan nan nan nan nan nan nan nan nan nan nan nan nan nan nan nan nan nan nan nan nan nan nan nan nan nan nan nan nan 1 1 0 1 1 1 0 nan nan nan nan nan nan nan nan nan nan nan nan nan nan nan nan nan nan nan nan nan nan nan nan nan nan nan
nan nan nan nan nan nan nan nan nan nan nan nan nan nan nan nan nan nan nan nan nan nan nan nan nan nan nan nan nan nan nan nan nan nan nan nan nan nan nan nan nan nan nan nan nan nan nan nan nan nan nan 1 3 3 2 1 1 1 0 0 0 nan nan nan nan nan nan nan nan nan nan nan nan nan nan nan nan nan nan nan nan nan nan nan nan nan
nan nan nan nan nan nan nan nan nan nan nan nan nan nan nan nan nan nan nan nan nan nan nan nan nan nan nan nan nan nan nan nan nan nan nan nan nan nan nan nan nan nan nan nan nan nan nan nan nan nan nan 2 4 4 4 2 2 3 2 2 2 nan nan nan nan nan nan nan nan nan nan nan nan nan nan nan nan nan nan nan nan nan nan nan nan nan
nan nan nan nan nan nan nan nan nan nan nan nan nan nan nan nan nan nan nan nan nan nan nan nan nan nan nan nan nan nan nan nan nan nan nan nan nan nan nan nan nan nan nan nan nan nan nan nan nan nan nan nan 7 7 9 5 5 6 4 2 2 0 nan nan nan nan nan nan nan nan nan nan nan nan nan nan nan nan nan nan nan nan nan nan nan nan
nan nan nan nan nan nan nan nan nan nan nan nan nan nan nan nan nan nan nan nan nan nan nan nan nan nan nan nan nan nan nan nan nan nan nan nan nan nan nan nan nan nan nan nan nan nan nan nan nan nan nan nan 4 4 13 11 11 9 8 6 6 2 0 nan nan nan nan nan nan nan nan nan nan nan nan nan nan nan nan nan nan nan nan nan nan nan
nan nan nan nan nan nan nan nan nan nan nan nan nan nan nan nan nan nan nan nan nan nan nan nan nan nan nan nan nan nan nan nan nan nan nan nan nan nan nan nan nan nan nan nan nan nan nan nan nan nan nan nan nan nan 10 14 14 13 10 7 7 4 2 1 1 0 0 nan nan nan nan nan nan nan nan nan nan nan nan nan nan nan nan nan nan nan
nan nan nan nan nan nan nan nan 0 0 nan nan nan nan nan nan nan nan nan nan nan nan nan nan nan nan nan nan nan nan nan nan nan nan nan nan nan nan nan nan nan nan nan nan nan nan nan nan nan nan nan nan nan nan 4 10 10 12 12 11 11 8 4 2 2 1 0 nan nan nan nan nan nan nan nan nan nan nan 0 0 0 nan nan nan nan nan
nan nan nan nan nan nan nan nan nan nan nan nan nan nan nan nan nan nan nan nan nan nan nan nan nan nan nan nan nan nan nan nan nan nan nan nan nan nan nan nan nan nan nan nan nan nan nan nan nan nan nan nan nan nan nan 6 6 11 12 12 12 9 7 4 4 2 0 nan nan nan nan nan nan nan nan nan nan nan 0 0 0 0 nan nan nan nan
nan nan nan nan nan nan nan nan nan nan nan nan nan nan nan nan nan nan nan nan nan nan nan nan nan nan nan nan nan nan nan nan nan nan nan nan nan nan nan nan nan nan nan nan nan nan nan nan nan nan nan nan nan nan nan nan nan 8 11 12 12 9 8 4 4 1 0 nan nan nan nan nan nan nan nan nan nan nan nan 1 1 1 0 nan nan 0
nan nan nan nan nan nan nan nan nan nan nan nan nan nan nan nan nan nan nan nan nan nan nan nan nan nan nan nan nan nan nan nan nan nan nan nan nan nan nan nan nan nan nan nan nan nan nan nan nan nan nan nan nan nan nan nan nan 2 8 9 9 10 7 5 5 2 0 nan nan nan nan nan nan nan nan nan nan nan nan 1 1 2 2 0 0 0
nan nan nan nan nan nan nan 0 1 1 nan nan nan nan nan nan nan nan nan nan nan nan nan nan nan nan nan nan nan nan nan nan nan nan nan nan nan nan nan nan nan nan nan nan nan nan nan nan nan nan nan nan nan nan nan nan nan 0 3 7 7 9 8 5 5 2 0 nan nan nan nan nan nan nan nan nan nan nan 0 1 1 3 3 1 1 0
nan nan 1 1 1 2 2 2 3 3 3 nan nan nan nan nan nan nan nan nan nan nan nan nan nan nan nan nan nan nan nan nan nan nan nan nan nan nan nan nan nan nan nan nan nan nan nan nan nan nan nan nan nan nan nan nan nan 0 2 4 4 6 6 4 4 2 0 nan nan nan nan nan nan nan nan nan nan nan 0 2 2 4 4 2 2 0
nan 0 0 1 1 2 2 3 3 3 3 3 2 2 nan nan nan nan nan nan nan nan nan nan nan nan nan nan nan nan nan nan nan nan nan nan nan nan nan nan nan nan nan nan nan nan nan nan nan nan nan nan nan nan nan nan nan nan 1 2 2 4 4 3 3 2 0 nan nan nan nan 0 0 0 0 0 0 0 1 3 3 5 6 nan nan nan
nan nan 1 2 2 3 2 3 3 3 4 3 2 2 nan nan nan nan nan nan nan nan nan nan nan nan nan nan nan nan nan nan nan nan nan nan nan nan nan nan nan nan nan nan nan nan nan nan nan nan nan nan nan nan nan nan nan nan 0 1 1 2 2 2 2 2 0 nan 0 0 1 1 2 2 1 0 1 1 2 4 4 7 4 nan nan nan
nan nan nan 1 1 2 0 nan 0 0 2 2 nan nan nan nan nan nan nan nan nan nan nan nan nan nan nan nan nan nan nan nan nan nan nan nan nan nan nan nan nan nan nan nan nan nan nan nan nan nan nan nan nan nan nan nan nan nan nan nan nan nan 0 1 1 1 1 0 1 1 2 2 3 3 2 2 2 2 3 6 6 8 0 nan nan nan
nan nan nan nan nan nan nan nan nan nan nan nan nan nan nan nan nan nan nan nan nan nan nan nan nan nan nan nan nan nan nan nan nan nan nan nan nan nan nan nan nan nan nan nan nan nan nan nan nan nan nan nan nan nan nan nan nan nan nan nan nan nan nan nan nan nan 0 1 2 2 3 4 3 3 2 2 2 2 5 8 8 6 nan nan nan nan
nan nan nan nan nan nan nan nan nan nan nan nan nan nan nan nan nan nan nan nan nan nan nan nan nan nan nan nan nan nan nan nan nan nan nan nan nan nan nan nan nan nan nan nan nan nan nan nan nan nan nan nan nan nan nan nan nan nan nan nan nan nan nan nan nan nan nan nan 2 2 3 3 3 3 2 2 3 3 6 8 8 11 nan nan nan nan
nan nan nan nan nan nan nan nan nan nan nan nan nan nan nan nan nan nan nan nan nan nan nan nan nan nan nan nan nan nan nan nan nan nan nan nan nan nan nan nan nan nan nan nan nan nan nan nan nan nan nan nan nan nan nan nan nan nan nan nan nan nan nan nan nan nan nan nan nan nan 1 1 1 1 1 2 3 3 6 9 9 14 4 nan nan nan
nan nan nan nan nan nan nan nan nan nan nan nan nan nan nan nan nan nan nan nan nan nan nan nan nan nan nan nan nan nan nan nan nan nan nan nan nan nan nan nan nan nan nan nan nan nan nan nan nan nan nan nan nan nan nan nan nan nan nan nan nan nan nan nan nan nan nan nan nan nan nan nan nan nan nan 0 2 2 5 9 9 14 20 nan nan nan
nan nan nan nan nan nan nan nan nan nan nan nan nan nan nan nan nan nan nan nan nan nan nan nan nan nan nan nan nan nan nan nan nan nan nan nan nan nan nan nan nan nan nan nan nan nan nan nan nan nan nan nan nan nan nan nan nan nan nan nan nan nan nan nan nan nan nan nan nan nan nan nan nan nan nan nan 2 2 5 9 9 15 19 16 16 nan
nan nan nan nan nan nan nan nan nan nan nan nan nan nan nan nan nan nan nan nan nan nan nan nan nan nan nan nan nan nan nan nan nan nan nan nan nan nan nan nan nan nan nan nan nan nan nan nan nan nan nan nan nan nan nan nan nan nan nan nan nan nan nan nan nan nan nan nan nan nan nan nan nan nan nan 0 3 3 6 8 8 14 20 20 20 14
nan nan nan nan nan nan nan nan nan nan nan nan nan nan nan nan nan nan nan nan nan nan nan nan nan nan nan nan nan nan nan nan nan nan nan nan nan nan nan nan nan nan nan nan nan nan nan nan nan nan nan nan nan nan nan nan nan nan nan nan nan nan nan nan nan nan nan nan nan nan nan nan nan nan nan 1 3 3 6 10 10 13 18 23 23 20
nan nan nan nan nan nan nan nan nan nan nan nan nan nan nan nan nan nan nan nan nan nan nan nan nan nan nan nan nan nan nan nan nan nan nan nan nan nan nan nan nan nan nan nan nan nan nan nan nan nan nan nan nan nan nan nan nan nan nan nan nan nan nan nan nan nan nan nan nan nan nan nan nan nan nan nan nan nan nan nan nan 9 15 16 16 21
nan nan nan nan nan nan nan nan nan nan nan nan nan nan nan nan nan nan nan nan nan nan nan nan nan nan nan nan nan nan nan nan nan nan nan nan nan nan nan nan nan nan nan nan nan nan nan nan nan nan nan nan nan nan nan nan nan nan nan nan nan nan nan nan nan nan nan nan nan nan nan nan nan nan nan nan nan nan nan nan nan 0 1 1 1 14
nan nan nan nan nan nan nan nan nan nan nan nan nan nan nan nan nan nan nan nan nan nan nan nan nan nan nan nan nan nan nan nan nan nan nan nan nan nan nan nan nan nan nan nan nan nan nan nan nan nan nan nan nan nan nan nan nan nan nan nan nan nan nan nan nan nan nan nan nan nan nan nan nan nan nan nan nan nan nan nan nan nan 0 nan nan 0
nan nan nan nan nan nan nan nan nan nan nan nan nan nan nan nan nan nan nan nan nan nan nan nan nan nan nan nan nan nan nan nan nan nan nan nan nan nan nan nan nan nan nan nan nan nan nan nan nan nan nan nan nan nan nan nan nan nan nan nan nan nan nan nan nan nan nan nan nan nan nan nan nan nan nan nan nan nan nan nan nan nan nan nan nan nan
nan nan nan nan nan nan nan nan nan nan nan nan nan nan nan nan nan nan nan nan nan nan nan nan nan nan nan nan nan nan nan nan nan nan nan nan nan nan nan nan nan nan nan nan nan nan nan nan nan nan nan nan nan nan nan nan nan nan nan nan nan nan nan nan nan nan nan nan nan nan nan nan nan nan nan nan nan nan nan nan nan nan nan nan nan nan
nan nan nan nan nan nan nan nan nan nan nan nan nan nan nan nan nan nan nan nan nan nan nan nan nan nan nan nan nan nan nan nan nan nan nan nan nan nan nan nan nan nan nan nan nan nan nan nan nan nan nan nan nan nan nan nan nan nan nan nan nan nan nan nan nan nan nan nan nan nan nan nan nan nan nan nan nan nan nan nan nan nan 2 nan nan nan
nan nan nan nan nan nan nan nan nan nan nan nan nan nan nan nan nan nan nan nan nan nan nan nan nan nan nan nan nan nan nan nan nan nan nan nan nan nan nan nan nan nan nan nan nan nan nan nan nan nan nan nan nan nan nan nan nan nan nan nan nan nan nan nan nan nan nan nan nan nan nan nan nan nan nan nan nan nan nan nan nan nan nan nan nan nan
nan nan nan nan nan nan nan nan nan nan nan nan nan nan nan nan nan nan nan nan nan nan nan nan nan nan nan nan nan nan nan nan nan nan nan nan nan nan nan nan nan nan nan nan nan nan nan nan nan nan nan nan nan nan nan nan nan nan nan nan nan nan nan nan nan nan nan nan nan nan nan nan nan nan nan nan nan nan nan nan nan nan nan nan nan nan
nan nan nan nan nan nan nan nan nan nan nan nan nan nan nan nan nan nan nan nan nan nan nan nan nan nan nan nan nan nan nan nan nan nan nan nan nan nan nan nan nan nan nan nan nan nan nan nan nan nan nan nan nan nan nan nan nan nan nan nan nan nan nan nan nan nan nan nan nan nan nan nan nan nan nan nan nan nan nan nan nan nan nan nan nan nan
nan nan nan nan nan nan nan nan nan nan nan nan nan nan nan nan nan nan nan nan nan nan nan nan nan nan nan nan nan nan nan nan nan nan nan nan nan nan nan nan nan nan nan nan nan nan nan nan nan nan nan nan nan nan nan nan nan nan nan nan nan nan nan nan nan nan nan nan nan nan nan nan nan nan nan nan nan nan nan nan nan nan nan nan nan nan
nan nan nan nan nan nan nan nan nan nan nan nan nan nan nan nan nan nan nan nan nan nan nan nan nan nan nan nan nan nan nan nan nan nan nan nan nan nan nan nan nan nan nan nan nan nan nan nan nan nan nan nan nan nan nan nan nan nan nan nan nan nan nan nan nan nan nan nan nan nan nan nan nan nan nan nan nan nan nan nan nan nan nan nan nan nan
nan nan nan nan nan nan nan nan nan nan nan nan nan nan nan nan nan nan nan nan nan nan nan nan nan nan nan nan nan nan nan nan nan nan nan nan nan nan nan nan nan nan nan nan nan nan nan nan nan nan nan nan nan nan nan nan nan nan nan nan nan nan nan nan nan nan nan nan nan nan nan nan nan nan nan nan nan nan nan nan nan nan nan nan nan nan
nan nan nan nan nan nan nan nan nan nan nan nan nan nan nan nan nan nan nan nan nan nan nan nan nan nan nan nan nan nan nan nan nan nan nan nan nan nan nan nan nan nan nan nan nan nan nan nan nan nan nan nan nan nan nan nan nan nan nan nan nan nan nan nan nan nan nan nan nan nan nan nan nan nan nan nan nan nan nan nan nan nan nan nan nan nan
nan nan nan nan nan nan nan nan nan nan nan nan nan nan nan nan nan nan nan nan nan nan nan nan nan nan nan nan nan nan nan nan nan nan nan nan nan nan nan nan nan nan nan nan nan nan nan nan nan nan nan nan nan nan nan nan nan nan nan nan nan nan nan nan nan nan nan nan nan nan nan nan nan nan nan nan nan nan nan nan nan nan nan nan nan nan
CIN
nan nan nan nan nan nan nan nan nan nan nan nan nan nan nan nan nan nan nan nan nan nan nan nan nan nan nan nan nan nan -10 -5 -5 -5 -6 -7 -0 -0 -0 -0 -0 -0 nan nan nan -0 -0 -0 -0 -0 -0 -0 -0 -0 -0 -0 -0 -0 -0 -0 -0 -0 -1 -0 -0 -0 -0 -0 -0 -0 -0 -0 -0 -0 -0 nan nan nan nan nan nan nan nan nan nan nan
nan nan nan nan nan nan nan nan nan nan nan nan nan nan nan nan nan nan nan nan nan nan nan nan nan nan nan nan -11 -11 -10 -4 -4 -4 -5 -5 -0 -0 nan -1 -1 -0 -1 nan nan nan nan nan nan nan nan -0 -0 -0 -0 -0 -0 -0 -0 -0 -0 -0 -0 -0 -0 -0 -0 -0 -0 -0 -0 -0 -0 -0 nan nan nan nan nan nan nan nan nan nan nan nan
nan nan nan nan nan nan nan nan nan nan nan nan nan nan nan nan nan nan nan nan nan nan nan nan nan nan nan -0 -0 -0 -6 -3 -3 -3 -3 -0 -5 -5 nan -3 -3 -1 -1 nan nan nan nan nan nan nan nan nan nan nan -0 -0 -0 -0 -0 -0 -0 -0 -0 -0 -0 -0 -0 -0 -0 -0 -0 -0 -0 -0 nan nan nan nan nan nan nan nan nan nan nan nan
nan nan nan nan nan nan nan nan nan nan nan nan nan nan nan nan nan nan nan nan nan nan nan nan nan nan nan -0 -0 -0 -0 nan -1 -1 -0 -0 -6 -6 nan -3 -3 -1 -0 nan nan nan nan nan nan nan nan nan nan nan nan -0 -0 nan nan nan nan nan -0 -0 -0 -0 -0 -0 nan nan nan -0 -0 -0 -0 -0 nan nan nan nan nan nan nan nan nan nan
nan nan nan nan nan nan nan nan nan nan nan nan nan nan nan nan nan nan nan nan nan nan nan nan nan nan nan nan -0 -0 -0 -0 nan nan -0 -0 -0 -0 -6 nan nan nan nan nan nan nan nan nan nan nan nan nan nan nan nan nan nan nan nan nan nan nan nan nan nan nan nan nan nan nan nan nan -0 -0 nan -0 nan nan nan nan nan nan nan nan nan nan
nan nan nan nan nan nan nan nan nan nan nan nan nan nan nan nan nan nan nan nan nan nan nan nan nan nan nan nan -0 -0 -0 -0 -0 -0 -0 -0 -0 -0 -0 -0 -0 -0 -0 -0 -0 nan nan nan nan nan nan nan nan nan nan nan nan nan nan nan nan nan nan nan nan nan nan nan nan nan nan nan nan nan nan nan nan nan nan nan nan nan nan nan nan nan
nan nan nan nan nan nan nan nan nan nan nan nan nan nan nan nan nan nan nan nan nan nan nan nan nan nan nan nan -0 -0 -0 nan nan nan -1 -3 -0 -0 -0 -0 -0 -0 -0 -0 -0 -0 nan nan nan nan nan nan nan nan nan -0 -0 nan nan nan nan nan nan nan nan nan nan nan nan nan nan nan nan nan nan nan nan nan nan nan nan nan nan nan nan nan
nan nan nan nan nan nan nan nan nan nan nan nan nan nan nan nan nan nan nan nan nan nan nan nan nan nan nan nan nan nan nan nan nan nan nan -1 -0 -0 -0 -0 -0 -0 -0 -0 -0 -0 -0 -0 -0 nan nan nan nan nan nan nan nan nan nan nan nan nan nan nan nan nan nan nan nan nan nan nan nan nan nan nan nan nan nan nan nan nan nan nan nan nan
nan nan nan nan nan nan nan nan nan nan nan nan nan nan nan nan nan nan nan nan nan nan nan -0 -0 nan nan nan nan nan nan -0 nan nan nan nan nan nan -0 -0 -0 -0 -0 -0 -0 -0 -0 -0 -0 nan nan nan nan nan nan nan nan nan nan nan nan nan nan nan nan nan nan nan nan nan nan nan nan nan nan nan nan nan nan nan nan nan nan nan nan nan
nan nan nan nan nan nan nan nan nan nan nan nan nan nan nan nan nan nan nan nan nan nan nan nan nan -0 nan nan nan nan nan nan nan nan -0 nan -0 -0 -1 nan nan -1 -0 -0 -0 -0 -0 -0 -0 -0 nan nan nan nan nan nan nan nan nan nan nan nan nan nan nan nan nan nan nan nan nan nan nan nan nan nan nan nan nan nan nan nan nan nan nan nan
nan nan nan nan nan nan nan nan nan nan nan nan nan nan nan nan nan nan nan nan nan nan nan nan nan nan -0 nan nan nan nan nan nan nan nan nan nan nan nan nan nan -1 -0 -0 -0 -0 -0 -0 -0 -0 nan nan nan nan nan nan nan nan nan nan nan nan nan nan nan nan nan nan nan nan nan nan nan nan nan nan nan nan nan nan nan nan nan nan nan nan
nan nan nan nan nan nan nan nan nan nan nan nan nan nan nan nan nan nan nan nan nan nan nan nan nan nan nan nan nan nan nan nan nan nan nan nan nan nan nan nan nan -2 -3 -0 -0 -0 -0 -0 -0 -0 nan nan nan nan nan nan nan nan nan nan nan nan nan nan nan nan nan nan nan nan nan nan nan nan nan nan nan nan nan nan nan nan nan nan nan nan
nan nan nan nan nan nan nan nan nan nan nan nan nan nan nan nan nan nan nan nan nan nan nan nan nan nan nan nan nan nan nan nan nan nan nan nan nan nan nan nan nan nan nan nan nan nan -1 -0 -0 -1 nan nan nan nan nan nan nan nan nan nan nan nan nan nan nan nan nan nan nan nan nan nan nan nan nan nan nan nan nan nan nan nan nan nan nan nan
nan nan nan nan nan nan nan nan nan nan nan nan nan nan nan nan nan nan nan nan nan nan nan nan nan nan nan nan nan nan nan nan nan nan nan nan nan nan nan nan nan nan nan nan nan nan nan nan nan nan -1 nan nan nan nan nan nan nan nan nan nan nan nan nan nan nan nan nan nan nan nan nan nan nan nan nan nan nan nan nan nan nan nan nan nan nan
nan nan nan nan nan nan nan nan nan nan nan nan nan nan nan nan nan nan nan nan nan nan nan nan nan nan nan nan nan nan nan nan nan nan nan nan nan nan nan nan nan nan nan nan nan nan nan nan nan nan nan nan nan nan nan nan nan nan nan nan nan nan nan nan nan nan nan nan nan nan nan nan nan nan nan nan nan nan nan nan nan nan nan nan nan nan
nan nan nan nan nan nan nan nan nan nan nan nan nan nan nan nan nan nan nan nan nan nan nan nan nan nan nan nan nan nan nan nan nan nan nan nan nan nan nan nan nan nan nan nan nan nan nan nan nan nan nan nan -0 -0 -0 -0 -0 -0 -0 nan nan nan nan nan nan nan nan nan nan nan nan nan nan nan nan nan nan nan nan nan nan nan nan nan nan nan
nan nan nan nan nan nan nan nan nan nan nan nan nan nan nan nan nan nan nan nan nan nan nan nan nan nan nan nan nan nan nan nan nan nan nan nan nan nan nan nan nan nan nan nan nan nan nan nan nan nan nan -1 -0 -0 -0 -0 -0 -0 -0 -0 -0 nan nan nan nan nan nan nan nan nan nan nan nan nan nan nan nan nan nan nan nan nan nan nan nan nan
nan nan nan nan nan nan nan nan nan nan nan nan nan nan nan nan nan nan nan nan nan nan nan nan nan nan nan nan nan nan nan nan nan nan nan nan nan nan nan nan nan nan nan nan nan nan nan nan nan nan nan -0 -0 -0 -0 -0 -0 -0 -0 -0 -0 nan nan nan nan nan nan nan nan nan nan nan nan nan nan nan nan nan nan nan nan nan nan nan nan nan
nan nan nan nan nan nan nan nan nan nan nan nan nan nan nan nan nan nan nan nan nan nan nan nan nan nan nan nan nan nan nan nan nan nan nan nan nan nan nan nan nan nan nan nan nan nan nan nan nan nan nan nan -0 -0 -0 -0 -0 -0 -0 -0 -0 -0 nan nan nan nan nan nan nan nan nan nan nan nan nan nan nan nan nan nan nan nan nan nan nan nan
nan nan nan nan nan nan nan nan nan nan nan nan nan nan nan nan nan nan nan nan nan nan nan nan nan nan nan nan nan nan nan nan nan nan nan nan nan nan nan nan nan nan nan nan nan nan nan nan nan nan nan nan -1 -1 -0 -0 -0 -0 -0 -0 -0 -0 -0 nan nan nan nan nan nan nan nan nan nan nan nan nan nan nan nan nan nan nan nan nan nan nan
nan nan nan nan nan nan nan nan nan nan nan nan nan nan nan nan nan nan nan nan nan nan nan nan nan nan nan nan nan nan nan nan nan nan nan nan nan nan nan nan nan nan nan nan nan nan nan nan nan nan nan nan nan nan -1 -0 -0 -0 -0 -0 -0 -0 -0 -0 -0 -0 -0 nan nan nan nan nan nan nan nan nan nan nan nan nan nan nan nan nan nan nan
nan nan nan nan nan nan nan nan -0 -0 nan nan nan nan nan nan nan nan nan nan nan nan nan nan nan nan nan nan nan nan nan nan nan nan nan nan nan nan nan nan nan nan nan nan nan nan nan nan nan nan nan nan nan nan -1 -1 -1 -0 -0 -0 -0 -0 -0 -0 -0 -0 -0 nan nan nan nan nan nan nan nan nan nan nan -0 -0 -0 nan nan nan nan nan
nan nan nan nan nan nan nan nan nan nan nan nan nan nan nan nan nan nan nan nan nan nan nan nan nan nan nan nan nan nan nan nan nan nan nan nan nan nan nan nan nan nan nan nan nan nan nan nan nan nan nan nan nan nan nan -0 -0 -0 -1 -0 -0 -0 -0 -0 -0 -0 -0 nan nan nan nan nan nan nan nan nan nan nan -0 -0 -0 -0 nan nan nan nan
nan nan nan nan nan nan nan nan nan nan nan nan nan nan nan nan nan nan nan nan nan nan nan nan nan nan nan nan nan nan nan nan nan nan nan nan nan nan nan nan nan nan nan nan nan nan nan nan nan nan nan nan nan nan nan nan nan -0 -1 -0 -0 -0 -0 -0 -0 -0 -0 nan nan nan nan nan nan nan nan nan nan nan nan -0 -0 -0 -0 nan nan -0
nan nan nan nan nan nan nan nan nan nan nan nan nan nan nan nan nan nan nan nan nan nan nan nan nan nan nan nan nan nan nan nan nan nan nan nan nan nan nan nan nan nan nan nan nan nan nan nan nan nan nan nan nan nan nan nan nan -0 -0 -0 -0 -0 -0 -0 -0 -0 -0 nan nan nan nan nan nan nan nan nan nan nan nan -0 -0 -0 -0 -0 -0 -0
nan nan nan nan nan nan nan -2 -1 -1 nan nan nan nan nan nan nan nan nan nan nan nan nan nan nan nan nan nan nan nan nan nan nan nan nan nan nan nan nan nan nan nan nan nan nan nan nan nan nan nan nan nan nan nan nan nan nan -0 -0 -0 -0 -0 -0 -0 -0 -0 -0 nan nan nan nan nan nan nan nan nan nan nan -0 -0 -0 -0 -0 -0 -0 -0
nan nan -0 -0 -0 -0 -0 -0 -0 -0 -0 nan nan nan nan nan nan nan nan nan nan nan nan nan nan nan nan nan nan nan nan nan nan nan nan nan nan nan nan nan nan nan nan nan nan nan nan nan nan nan nan nan nan nan nan nan nan -0 -0 -0 -0 -0 -0 -0 -0 -0 -0 nan nan nan nan nan nan nan nan nan nan nan -0 -0 -0 -0 -0 -0 -0 -2
nan -0 -0 -0 -0 -0 -0 -0 -0 -0 -0 -0 -0 -0 nan nan nan nan nan nan nan nan nan nan nan nan nan nan nan nan nan nan nan nan nan nan nan nan nan nan nan nan nan nan nan nan nan nan nan nan nan nan nan nan nan nan nan nan -0 -0 -0 -0 -0 -0 -0 -0 -0 nan nan nan nan -0 -0 -0 -0 -0 -0 -0 -0 -0 -0 -0 -0 nan nan nan
nan nan -0 -0 -0 -0 -0 -0 -0 -0 -0 -0 -0 -0 nan nan nan nan nan nan nan nan nan nan nan nan nan nan nan nan nan nan nan nan nan nan nan nan nan nan nan nan nan nan nan nan nan nan nan nan nan nan nan nan nan nan nan nan -0 -0 -0 -0 -0 -0 -0 -0 -0 nan -0 -0 -0 -0 -0 -0 -0 -0 -0 -0 -0 -0 -0 -0 -2 nan nan nan
nan nan nan -0 -0 -0 -0 nan -0 -0 -0 -0 nan nan nan nan nan nan nan nan nan nan nan nan nan nan nan nan nan nan nan nan nan nan nan nan nan nan nan nan nan nan nan nan nan nan nan nan nan nan nan nan nan nan nan nan nan nan nan nan nan nan -0 -0 -0 -0 -0 -0 -0 -0 -0 -0 -0 -0 -0 -0 -0 -0 -0 -0 -0 -0 -21 nan nan nan
nan nan nan nan nan nan nan nan nan nan nan nan nan nan nan nan nan nan nan nan nan nan nan nan nan nan nan nan nan nan nan nan nan nan nan nan nan nan nan nan nan nan nan nan nan nan nan nan nan nan nan nan nan nan nan nan nan nan nan nan nan nan nan nan nan nan -0 -0 -0 -0 -0 -0 -0 -0 -0 -0 -0 -0 -0 -0 -0 -6 nan nan nan nan
nan nan nan nan nan nan nan nan nan nan nan nan nan nan nan nan nan nan nan nan nan nan nan nan nan nan nan nan nan nan nan nan nan nan nan nan nan nan nan nan nan nan nan nan nan nan nan nan nan nan nan nan nan nan nan nan nan nan nan nan nan nan nan nan nan nan nan nan -0 -0 -0 -0 -0 -0 -0 -0 -0 -0 -0 -0 -0 -0 nan nan nan nan
nan nan nan nan nan nan nan nan nan nan nan nan nan nan nan nan nan nan nan nan nan nan nan nan nan nan nan nan nan nan nan nan nan nan nan nan nan nan nan nan nan nan nan nan nan nan nan nan nan nan nan nan nan nan nan nan nan nan nan nan nan nan nan nan nan nan nan nan nan nan -0 -0 -0 -0 -0 -0 -0 -0 -0 -0 -0 -0 -13 nan nan nan
nan nan nan nan nan nan nan nan nan nan nan nan nan nan nan nan nan nan nan nan nan nan nan nan nan nan nan nan nan nan nan nan nan nan nan nan nan nan nan nan nan nan nan nan nan nan nan nan nan nan nan nan nan nan nan nan nan nan nan nan nan nan nan nan nan nan nan nan nan nan nan nan nan nan nan -0 -0 -0 -0 -0 -0 -0 -0 nan nan nan
nan nan nan nan nan nan nan nan nan nan nan nan nan nan nan nan nan nan nan nan nan nan nan nan nan nan nan nan nan nan nan nan nan nan nan nan nan nan nan nan nan nan nan nan nan nan nan nan nan nan nan nan nan nan nan nan nan nan nan nan nan nan nan nan nan nan nan nan nan nan nan nan nan nan nan nan -0 -0 -0 -0 -0 -0 -0 -0 -0 nan
nan nan nan nan nan nan nan nan nan nan nan nan nan nan nan nan nan nan nan nan nan nan nan nan nan nan nan nan nan nan nan nan nan nan nan nan nan nan nan nan nan nan nan nan nan nan nan nan nan nan nan nan nan nan nan nan nan nan nan nan nan nan nan nan nan nan nan nan nan nan nan nan nan nan nan -6 -0 -0 -0 -0 -0 -0 -0 -0 -0 -0
nan nan nan nan nan nan nan nan nan nan nan nan nan nan nan nan nan nan nan nan nan nan nan nan nan nan nan nan nan nan nan nan nan nan nan nan nan nan nan nan nan nan nan nan nan nan nan nan nan nan nan nan nan nan nan nan nan nan nan nan nan nan nan nan nan nan nan nan nan nan nan nan nan nan nan -9 -7 -7 -0 -0 -0 -0 -0 -0 -0 -0
nan nan nan nan nan nan nan nan nan nan nan nan nan nan nan nan nan nan nan nan nan nan nan nan nan nan nan nan nan nan nan nan nan nan nan nan nan nan nan nan nan nan nan nan nan nan nan nan nan nan nan nan nan nan nan nan nan nan nan nan nan nan nan nan nan nan nan nan nan nan nan nan nan nan nan nan nan nan nan nan nan -1 -0 -1 -1 -0
nan nan nan nan nan nan nan nan nan nan nan nan nan nan nan nan nan nan nan nan nan nan nan nan nan nan nan nan nan nan nan nan nan nan nan nan nan nan nan nan nan nan nan nan nan nan nan nan nan nan nan nan nan nan nan nan nan nan nan nan nan nan nan nan nan nan nan nan nan nan nan nan nan nan nan nan nan nan nan nan nan -23 -21 -24 -24 -2
nan nan nan nan nan nan nan nan nan nan nan nan nan nan nan nan nan nan nan nan nan nan nan nan nan nan nan nan nan nan nan nan nan nan nan nan nan nan nan nan nan nan nan nan nan nan nan nan nan nan nan nan nan nan nan nan nan nan nan nan nan nan nan nan nan nan nan nan nan nan nan nan nan nan nan nan nan nan nan nan nan nan -21 nan nan -22
nan nan nan nan nan nan nan nan nan nan nan nan nan nan nan nan nan nan nan nan nan nan nan nan nan nan nan nan nan nan nan nan nan nan nan nan nan nan nan nan nan nan nan nan nan nan nan nan nan nan nan nan nan nan nan nan nan nan nan nan nan nan nan nan nan nan nan nan nan nan nan nan nan nan nan nan nan nan nan nan nan nan nan nan nan nan
nan nan nan nan nan nan nan nan nan nan nan nan nan nan nan nan nan nan nan nan nan nan nan nan nan nan nan nan nan nan nan nan nan nan nan nan nan nan nan nan nan nan nan nan nan nan nan nan nan nan nan nan nan nan nan nan nan nan nan nan nan nan nan nan nan nan nan nan nan nan nan nan nan nan nan nan nan nan nan nan nan nan nan nan nan nan
nan nan nan nan nan nan nan nan nan nan nan nan nan nan nan nan nan nan nan nan nan nan nan nan nan nan nan nan nan nan nan nan nan nan nan nan nan nan nan nan nan nan nan nan nan nan nan nan nan nan nan nan nan nan nan nan nan nan nan nan nan nan nan nan nan nan nan nan nan nan nan nan nan nan nan nan nan nan nan nan nan nan -6 nan nan nan
nan nan nan nan nan nan nan nan nan nan nan nan nan nan nan nan nan nan nan nan nan nan nan nan nan nan nan nan nan nan nan nan nan nan nan nan nan nan nan nan nan nan nan nan nan nan nan nan nan nan nan nan nan nan nan nan nan nan nan nan nan nan nan nan nan nan nan nan nan nan nan nan nan nan nan nan nan nan nan nan nan nan nan nan nan nan
nan nan nan nan nan nan nan nan nan nan nan nan nan nan nan nan nan nan nan nan nan nan nan nan nan nan nan nan nan nan nan nan nan nan nan nan nan nan nan nan nan nan nan nan nan nan nan nan nan nan nan nan nan nan nan nan nan nan nan nan nan nan nan nan nan nan nan nan nan nan nan nan nan nan nan nan nan nan nan nan nan nan nan nan nan nan
nan nan nan nan nan nan nan nan nan nan nan nan nan nan nan nan nan nan nan nan nan nan nan nan nan nan nan nan nan nan nan nan nan nan nan nan nan nan nan nan nan nan nan nan nan nan nan nan nan nan nan nan nan nan nan nan nan nan nan nan nan nan nan nan nan nan nan nan nan nan nan nan nan nan nan nan nan nan nan nan nan nan nan nan nan nan
nan nan nan nan nan nan nan nan nan nan nan nan nan nan nan nan nan nan nan nan nan nan nan nan nan nan nan nan nan nan nan nan nan nan nan nan nan nan nan nan nan nan nan nan nan nan nan nan nan nan nan nan nan nan nan nan nan nan nan nan nan nan nan nan nan nan nan nan nan nan nan nan nan nan nan nan nan nan nan nan nan nan nan nan nan nan
nan nan nan nan nan nan nan nan nan nan nan nan nan nan nan nan nan nan nan nan nan nan nan nan nan nan nan nan nan nan nan nan nan nan nan nan nan nan nan nan nan nan nan nan nan nan nan nan nan nan nan nan nan nan nan nan nan nan nan nan nan nan nan nan nan nan nan nan nan nan nan nan nan nan nan nan nan nan nan nan nan nan nan nan nan nan
nan nan nan nan nan nan nan nan nan nan nan nan nan nan nan nan nan nan nan nan nan nan nan nan nan nan nan nan nan nan nan nan nan nan nan nan nan nan nan nan nan nan nan nan nan nan nan nan nan nan nan nan nan nan nan nan nan nan nan nan nan nan nan nan nan nan nan nan nan nan nan nan nan nan nan nan nan nan nan nan nan nan nan nan nan nan
nan nan nan nan nan nan nan nan nan nan nan nan nan nan nan nan nan nan nan nan nan nan nan nan nan nan nan nan nan nan nan nan nan nan nan nan nan nan nan nan nan nan nan nan nan nan nan nan nan nan nan nan nan nan nan nan nan nan nan nan nan nan nan nan nan nan nan nan nan nan nan nan nan nan nan nan nan nan nan nan nan nan nan nan nan nan
nan nan nan nan nan nan nan nan nan nan nan nan nan nan nan nan nan nan nan nan nan nan nan nan nan nan nan nan nan nan nan nan nan nan nan nan nan nan nan nan nan nan nan nan nan nan nan nan nan nan nan nan nan nan nan nan nan nan nan nan nan nan nan nan nan nan nan nan nan nan nan nan nan nan nan nan nan nan nan nan nan nan nan nan nan nan
Wind_Speed
1 0 1 2 2 2 2 3 3 3 3 2 2 1 2 2 2 2 3 3 3 3 3 3 4 3 3 1 1 3 5 7 8 8 9 9 9 9 9 8 8 7 7 7 7 8 8 8 8 8 8 8 8 8 8 8 8 8 8 7 6 5 5 6 7 9 11 12 13 14 15 15 15 15 15 14 13 13 12 11 11 10 10 9 8 7
1 1 2 3 3 3 1 2 3 3 2 2 2 2 2 2 3 3 3 3 4 4 4 4 4 5 5 5 2 1 3 6 7 9 9 9 9 9 9 9 8 8 8 8 8 8 8 9 9 9 9 9 9 9 9 8 8 8 8 8 7 7 6 6 7 9 11 12 13 14 14 14 14 13 13 13 13 12 11 11 10 10 9 8 7 6
1 2 2 3 3 2 1 2 2 2 2 2 2 2 3 3 3 3 3 3 3 4 4 4 4 4 5 6 5 4 2 2 6 8 9 10 10 10 10 10 9 9 8 8 8 8 8 9 9 9 9 9 9 8 8 8 8 8 8 9 9 8 8 8 9 11 12 12 13 13 13 12 12 12 13 12 12 12 11 10 10 9 8 7 6 5
1 2 2 2 2 1 1 1 1 2 2 2 2 2 3 2 2 2 2 2 3 3 3 3 3 3 3 4 5 7 7 4 2 5 7 8 9 10 11 11 10 10 9 9 9 9 9 9 9 9 9 8 8 8 7 7 7 8 9 9 10 10 10 11 11 12 12 12 12 12 11 11 11 12 12 12 11 11 10 10 9 8 7 7 6 5
1 1 1 1 1 1 0 1 1 1 2 2 2 2 2 2 2 1 1 2 2 2 2 3 3 3 2 3 4 6 8 7 5 3 5 7 9 10 11 11 11 11 10 10 10 9 9 9 9 9 8 8 8 7 7 6 7 8 9 10 11 11 11 12 12 12 12 11 11 10 10 10 11 11 11 11 10 10 9 9 8 8 7 6 5 5
1 1 1 1 0 1 1 1 1 1 1 1 1 1 1 1 1 1 1 1 1 1 1 2 2 2 2 3 4 6 8 8 7 5 4 6 9 11 12 12 12 12 11 11 10 10 9 9 9 9 8 8 8 8 7 7 7 8 9 10 11 12 12 12 12 11 11 10 10 10 10 10 10 10 10 10 10 9 9 8 8 7 7 6 5 5
1 0 0 0 0 1 1 1 0 0 0 1 1 1 0 0 0 0 1 1 1 1 1 2 2 2 2 3 4 6 7 7 6 4 4 7 10 11 12 13 13 12 12 12 11 10 10 10 9 9 9 8 8 8 8 8 8 9 10 11 11 12 12 12 12 12 11 11 11 10 10 10 10 10 10 9 9 8 8 8 7 7 6 6 5 4
1 1 0 0 1 1 1 1 0 1 1 0 1 1 1 1 0 0 0 1 1 2 2 2 2 2 2 3 4 5 5 5 4 2 4 7 10 12 13 13 13 13 12 12 11 11 10 10 10 9 9 9 9 9 9 9 9 9 10 11 11 12 12 13 12 12 12 11 11 11 11 11 11 10 10 9 9 8 7 7 6 6 6 5 5 4
1 2 1 1 1 1 1 1 0 0 1 1 1 1 2 1 1 1 0 0 1 2 2 2 2 2 2 3 4 4 5 4 2 1 3 5 7 9 11 12 12 12 12 12 11 11 11 11 10 10 10 10 10 10 10 10 10 10 10 10 11 12 12 12 12 12 12 11 11 11 11 11 10 10 10 9 9 8 7 6 6 5 5 4 4 3
2 2 2 2 1 0 0 0 0 0 1 1 1 1 2 2 2 1 1 1 1 1 2 2 2 2 3 3 3 4 5 5 3 3 5 6 7 8 9 9 10 10 12 11 11 11 11 11 11 11 11 11 11 11 10 10 10 9 9 10 10 10 11 12 12 12 12 11 11 10 10 9 9 9 8 8 8 7 7 6 6 5 5 4 3 3
2 2 2 2 1 0 0 1 1 0 1 0 0 1 2 2 2 2 2 1 1 1 2 2 2 2 2 3 3 4 4 4 4 4 5 6 7 8 8 8 8 9 11 11 11 11 11 11 11 11 11 12 11 11 10 10 9 9 9 9 9 10 10 10 11 11 11 10 10 9 9 8 8 7 7 7 6 6 6 5 5 5 5 4 3 3
1 1 1 1 0 0 0 1 0 0 1 1 1 2 2 2 2 2 2 1 0 1 1 1 1 1 1 2 3 3 3 3 3 3 3 3 4 4 5 6 7 8 9 9 9 10 10 11 11 11 11 11 11 11 10 9 9 9 8 8 8 9 9 9 10 10 10 9 9 8 8 7 7 6 5 5 5 5 4 4 4 4 4 3 3 3
1 1 1 0 1 1 1 1 1 0 0 1 1 2 2 1 1 1 0 1 1 1 1 1 1 1 1 1 1 2 2 2 2 2 2 3 3 3 2 3 3 4 4 5 5 6 8 9 10 10 10 11 11 11 11 10 9 9 8 8 8 8 8 8 8 8 8 8 7 7 7 6 6 5 4 4 4 3 3 3 3 3 2 2 2 3
1 1 1 1 1 1 2 2 2 1 2 2 2 1 1 1 1 1 1 1 1 1 1 1 0 1 1 1 1 1 2 2 2 2 2 2 3 3 3 1 2 3 3 3 3 3 5 6 6 7 9 10 10 10 10 10 10 9 9 8 8 7 7 7 7 7 7 7 6 6 5 5 5 4 4 3 3 2 2 2 1 1 1 2 2 3
1 1 2 2 2 2 1 1 1 1 1 1 0 0 0 1 1 1 1 1 0 0 0 1 1 1 1 1 1 1 2 2 2 2 2 2 2 3 3 1 1 2 2 2 2 2 3 3 3 4 5 7 7 8 9 9 9 9 9 9 8 8 7 7 7 6 6 6 5 5 5 4 4 4 3 3 2 2 1 0 0 1 2 2 3 3
1 1 2 2 1 1 1 1 0 0 0 0 0 0 0 1 0 0 1 1 1 0 1 1 1 1 1 1 1 2 2 2 2 2 2 2 2 3 3 2 1 2 2 2 2 2 2 2 2 2 3 5 7 8 9 9 9 10 9 9 9 8 8 7 7 6 6 5 5 4 4 4 3 3 3 2 2 1 1 1 1 2 2 3 3 3
1 1 1 1 1 1 1 0 0 0 0 0 0 0 0 0 0 0 1 1 1 1 1 1 0 1 1 1 1 2 2 2 1 2 2 2 2 3 3 2 1 2 2 2 2 1 1 2 2 2 2 4 7 8 9 9 9 10 9 9 9 8 8 7 7 6 6 5 4 4 4 4 3 3 3 3 2 2 1 1 2 2 3 3 4 4
1 1 1 1 1 1 1 0 0 0 0 0 0 0 0 0 0 0 0 1 1 1 1 1 1 1 1 1 1 2 2 2 1 1 1 1 2 2 2 2 2 2 2 2 1 1 1 1 1 1 1 4 6 8 9 9 9 9 9 9 9 8 8 7 7 6 6 5 4 4 4 4 4 4 3 3 3 3 2 2 3 3 3 4 4 5
1 1 1 1 1 1 0 1 1 0 0 0 0 0 0 1 1 1 1 0 1 1 1 1 1 1 1 1 0 1 2 1 1 1 1 0 1 2 2 2 2 2 2 1 1 1 1 2 2 2 1 2 5 7 9 9 9 9 9 9 9 8 8 7 7 6 6 5 5 4 4 4 4 4 4 4 4 4 4 3 3 3 4 4 5 5
1 1 1 1 1 1 1 1 1 1 0 0 1 1 0 0 0 0 1 1 0 0 1 1 1 1 1 0 1 1 2 1 1 1 1 1 0 1 2 2 2 2 1 1 1 1 1 1 2 2 2 1 3 6 8 9 10 10 10 9 9 9 8 8 7 6 6 5 5 5 5 5 5 5 5 5 5 5 4 4 4 4 4 5 5 6
1 1 1 1 1 1 1 1 2 2 1 1 1 1 1 0 0 1 1 1 1 0 0 0 0 0 1 0 1 1 2 1 1 1 1 1 0 1 1 1 1 1 1 0 0 0 1 1 1 2 2 2 3 5 7 8 9 10 10 10 9 9 8 8 7 7 6 6 6 5 5 5 5 5 6 6 6 6 5 5 5 5 5 5 6 6
0 0 1 2 2 1 1 2 2 3 2 1 1 0 1 1 1 1 1 1 1 0 0 1 1 1 0 0 1 1 1 1 1 1 1 1 1 1 1 0 1 1 1 1 0 0 0 0 0 1 2 3 4 5 6 7 9 10 10 10 9 9 8 8 8 7 7 6 6 6 6 6 6 6 6 6 6 6 6 6 5 5 5 6 6 7
1 1 1 1 1 1 1 1 2 2 2 1 1 0 0 0 0 0 0 0 0 1 1 1 1 1 0 0 1 1 1 0 0 1 1 1 1 1 0 0 0 1 1 1 1 1 0 0 0 1 2 4 5 5 6 7 8 8 9 9 9 9 9 8 8 8 7 7 7 7 7 7 7 7 7 7 7 7 7 6 6 6 6 6 7 7
1 1 1 1 0 0 0 1 1 1 1 2 2 1 1 1 1 1 1 2 2 2 2 2 1 1 0 0 0 1 1 1 0 1 1 1 1 1 0 0 1 1 2 1 1 1 1 1 1 1 2 4 6 6 7 7 8 8 8 9 9 9 9 9 9 8 8 8 8 8 8 8 8 8 7 7 8 8 7 7 7 6 6 6 7 7
2 1 1 1 1 0 0 0 0 1 2 2 2 1 1 2 2 2 2 2 2 2 2 2 1 0 0 0 0 0 1 1 0 1 1 0 0 0 0 0 1 1 1 0 1 1 1 1 1 1 2 3 6 7 8 8 9 9 9 9 9 9 9 9 9 9 9 9 9 9 9 8 8 8 8 8 8 8 8 8 7 7 7 7 7 7
3 2 2 2 2 2 2 2 2 2 3 3 2 1 1 1 2 2 2 2 1 1 2 1 1 1 1 0 1 1 1 1 0 0 1 1 0 0 1 1 0 0 1 1 0 1 1 1 1 2 2 3 5 7 9 9 10 10 10 10 10 10 10 10 10 10 10 9 9 9 9 9 9 9 8 8 9 9 8 8 8 7 7 7 7 7
4 4 4 4 4 4 4 4 4 4 4 3 3 2 1 1 1 1 1 0 1 1 1 1 1 1 1 0 1 1 1 1 1 1 1 1 1 0 1 1 0 0 1 1 1 1 2 2 2 2 2 3 4 6 9 10 11 11 11 11 11 11 11 11 11 10 10 10 10 10 10 10 10 9 9 9 9 9 9 9 8 8 7 6 6 5
5 5 5 5 5 5 5 5 5 5 5 4 3 3 2 1 1 1 0 1 1 1 1 1 1 1 1 1 1 2 1 1 1 1 1 1 0 1 1 1 0 0 0 1 1 2 2 2 2 2 2 2 3 4 7 9 10 11 11 11 12 12 12 11 11 11 11 11 11 11 11 10 10 10 10 9 9 9 9 9 9 8 7 5 3 2
4 5 5 5 5 6 6 5 5 5 5 5 5 5 4 2 1 0 1 1 1 1 1 1 1 1 1 1 1 1 1 1 1 1 2 1 0 0 0 0 0 0 0 1 1 1 2 2 1 1 1 1 1 2 3 5 7 7 8 10 11 11 11 12 12 12 12 12 11 11 11 11 11 10 10 10 10 10 10 10 9 7 5 4 2 1
3 3 4 4 5 5 5 4 4 5 5 5 5 5 5 3 2 1 1 1 1 1 1 1 1 1 1 1 0 1 1 2 1 1 2 1 1 0 1 0 0 0 1 0 1 1 2 2 2 1 1 1 1 0 1 1 1 2 3 5 6 8 10 11 11 12 12 12 12 12 12 12 11 11 11 10 11 11 11 11 9 6 4 2 2 1
1 2 2 2 3 3 3 3 3 4 4 5 5 5 4 3 2 2 2 1 1 1 1 1 1 1 1 1 0 1 1 2 2 1 2 2 1 1 1 1 0 1 0 1 0 1 2 2 2 2 2 2 1 1 1 0 0 0 1 1 2 4 7 9 10 11 11 12 12 12 12 12 12 11 11 11 11 11 11 11 9 6 4 3 2 2
1 1 1 1 1 1 2 2 2 2 3 3 3 3 3 3 3 2 2 2 1 1 0 0 0 0 1 1 1 1 1 2 2 2 2 2 1 0 1 1 1 0 0 1 1 1 1 1 2 3 2 2 2 1 1 1 1 1 0 0 1 3 6 7 8 9 9 10 11 12 12 12 12 12 12 12 12 12 12 12 10 7 4 4 3 3
2 1 1 1 1 1 1 1 1 1 1 2 2 2 2 2 3 2 2 2 1 1 1 1 0 0 0 0 0 0 0 2 2 2 2 2 1 0 1 1 1 1 1 1 1 1 1 1 2 2 2 2 1 1 1 1 1 1 1 1 1 2 4 5 5 5 6 7 8 9 11 11 12 12 12 12 13 13 13 13 11 9 6 4 4 4
2 1 1 1 1 1 1 1 1 1 1 1 1 1 1 2 2 2 2 2 2 2 1 1 1 1 1 1 1 1 1 2 2 1 2 3 2 1 1 1 1 1 1 1 1 0 1 1 1 1 2 2 2 1 1 2 1 1 1 2 2 2 2 2 2 3 3 3 4 4 6 7 9 10 11 12 13 13 13 13 12 11 9 6 5 4
1 1 1 1 1 1 1 1 1 1 1 1 1 1 1 1 1 1 2 2 2 1 1 1 2 2 2 1 1 0 1 2 2 1 2 3 2 2 1 1 1 1 1 1 1 0 1 1 1 1 1 2 2 2 1 1 1 1 0 1 1 1 1 1 1 2 2 2 2 2 3 3 5 6 8 10 11 12 13 13 13 12 12 10 8 6
1 1 2 2 2 2 2 2 1 1 1 1 0 0 0 1 1 1 1 1 1 1 1 1 1 1 2 3 2 2 2 2 2 1 1 2 3 2 1 1 1 2 2 2 1 1 0 1 1 0 0 1 2 2 2 2 1 1 1 1 1 1 1 1 1 1 1 2 2 2 2 3 3 4 5 8 10 12 13 13 13 13 13 12 11 10
1 1 2 2 2 3 2 2 2 2 2 1 1 1 1 1 1 1 1 1 1 1 1 1 1 0 1 2 2 3 2 2 1 1 1 2 2 2 2 1 1 2 2 2 2 1 1 0 1 1 0 1 1 2 2 2 2 1 1 1 1 2 2 1 1 1 1 2 2 2 3 3 3 4 4 7 9 11 12 13 13 13 13 13 13 12
1 1 2 2 2 2 2 2 2 2 3 2 2 2 1 1 1 1 0 0 1 1 1 1 1 1 1 1 1 1 2 1 0 0 1 1 2 2 2 1 1 1 2 2 2 2 1 1 0 1 1 2 2 2 1 1 1 1 2 2 2 2 2 2 1 1 1 1 2 2 2 2 3 3 3 4 5 5 6 7 8 10 12 12 13 14
2 2 2 2 2 2 2 2 2 3 3 3 3 2 2 1 1 1 0 0 0 0 0 0 0 0 1 1 1 1 1 1 0 0 0 1 2 2 2 1 1 1 1 2 3 3 2 2 1 1 1 2 2 2 1 1 1 1 1 1 2 2 2 2 2 1 1 1 1 1 1 1 1 2 2 2 2 3 3 3 4 6 7 6 8 10
2 2 2 2 2 2 2 2 2 3 3 3 2 2 2 1 1 0 0 0 0 0 0 0 0 1 1 1 2 2 2 2 1 1 1 1 2 2 2 2 1 1 1 1 2 3 3 2 2 2 2 1 1 1 1 1 1 1 1 0 1 2 3 2 2 2 2 1 1 1 1 1 1 1 2 2 3 3 3 3 3 4 5 4 4 5
2 2 2 1 1 2 2 2 2 2 3 3 2 2 1 1 1 0 1 1 1 1 1 1 1 1 2 2 2 2 2 2 2 2 1 2 2 2 2 2 2 1 1 1 1 2 2 2 1 1 1 1 1 1 2 2 2 2 2 1 2 2 3 3 3 3 2 2 2 2 2 1 1 1 2 2 3 3 3 3 3 3 4 4 3 3
3 2 2 2 2 2 2 2 2 2 3 2 2 2 1 1 1 1 0 0 1 1 0 0 0 1 2 3 3 3 2 2 2 2 2 2 2 2 2 2 2 2 2 1 1 1 1 1 1 1 1 1 1 1 2 2 2 2 2 2 2 1 2 2 2 2 3 3 2 2 3 2 2 2 2 2 2 2 3 3 4 5 5 4 3 3
3 2 2 2 3 3 3 3 3 2 2 1 1 1 2 2 2 2 1 1 1 1 1 1 1 0 1 2 3 3 2 2 1 1 2 2 2 2 2 1 1 2 2 2 1 0 1 1 1 2 2 1 1 2 2 2 2 2 2 2 1 0 1 2 2 1 2 3 3 3 3 2 2 2 2 2 2 2 2 3 5 6 7 5 4 4
2 2 2 3 3 3 3 2 2 1 1 1 1 1 1 1 2 2 2 1 1 1 1 1 1 1 0 1 2 2 2 2 2 2 0 1 2 2 2 1 1 2 3 2 1 1 0 1 2 2 2 2 2 2 3 2 2 2 2 2 2 2 2 2 2 2 2 3 3 3 3 2 2 1 1 1 1 1 1 2 3 4 5 4 4 4
2 2 3 3 2 2 2 2 2 2 1 1 1 1 1 1 1 1 1 1 0 0 0 1 1 1 1 1 2 2 2 2 3 3 2 1 2 2 2 1 1 1 2 2 3 2 2 1 2 2 1 1 2 3 3 3 3 3 3 2 2 3 3 2 2 2 3 3 4 4 3 2 2 1 1 2 2 2 2 2 3 3 4 3 3 3
2 2 3 3 2 2 3 3 2 2 2 1 1 1 1 1 1 1 1 1 0 0 1 1 1 0 1 2 2 2 2 2 2 2 2 2 1 1 1 1 1 1 1 2 2 3 3 2 2 1 1 1 1 3 4 4 3 3 3 3 3 3 3 2 2 2 3 4 4 4 3 2 2 2 2 3 3 3 3 3 4 4 4 3 3 3
2 2 3 3 3 3 2 3 3 2 2 1 1 1 1 1 1 1 1 1 1 0 1 0 0 1 1 1 1 1 2 2 2 2 1 1 1 1 0 0 0 0 1 1 1 2 2 3 2 2 0 1 2 3 4 3 4 4 4 3 3 3 3 3 2 3 3 4 4 3 3 3 3 3 3 3 3 3 3 3 4 4 4 4 4 4
3 3 3 3 3 3 2 2 2 2 2 2 1 1 2 2 2 2 1 1 1 1 0 1 1 1 1 2 1 2 2 3 3 2 1 1 1 1 0 0 1 1 1 1 1 1 2 2 3 3 3 2 3 4 4 3 3 4 3 3 3 3 4 4 3 2 3 4 4 4 4 3 4 4 4 3 3 3 3 3 3 4 4 4 4 4
3 3 3 3 2 2 2 2 2 2 2 2 2 2 2 2 2 2 2 2 1 1 0 1 1 2 2 2 2 2 2 3 3 2 1 1 1 1 1 1 1 1 2 2 2 2 2 3 4 5 5 5 5 5 5 4 4 3 3 3 3 3 4 4 3 2 2 3 4 4 4 4 4 4 4 4 4 4 3 4 4 4 4 4 4 4
3 3 3 3 3 2 2 2 2 2 2 2 2 2 2 1 1 2 2 2 2 1 1 1 2 2 3 2 2 2 2 2 2 2 1 1 1 2 2 1 1 1 2 2 2 2 2 3 4 6 8 10 9 8 6 6 5 4 3 3 3 3 4 4 3 3 2 3 3 4 4 4 4 3 3 3 4 4 4 3 4 4 4 4 4 5
3 3 3 3 3 3 2 2 2 3 3 3 3 2 2 2 1 1 1 2 1 1 1 1 2 2 3 3 3 3 3 3 3 3 2 1 1 2 3 2 2 2 1 1 1 2 1 2 2 3 6 11 13 12 8 6 5 4 3 3 3 3 3 3 3 3 3 3 3 3 4 4 3 3 3 3 3 4 4 4 4 4 4 4 4 5
Wind_Direction
83 11 341 13 35 45 26 26 34 37 23 18 20 23 10 6 4 4 9 17 17 12 3 353 348 344 337 303 201 168 159 158 158 158 156 153 149 144 138 134 130 125 119 112 105 96 88 80 73 65 57 50 44 40 39 41 43 44 43 44 46 54 72 89 97 99 97 96 95 95 95 96 97 98 99 99 99 99 98 97 95 93 91 90 89 89
59 30 12 27 44 54 24 19 35 48 36 16 9 9 11 10 10 9 9 15 23 26 18 4 356 353 353 345 331 212 176 171 169 168 165 161 156 151 145 141 137 133 126 118 109 100 91 84 76 69 62 55 49 43 40 42 45 48 49 49 49 52 64 79 90 94 95 96 96 96 97 98 99 101 102 103 103 103 101 99 97 94 92 91 90 89
53 33 19 23 39 49 27 10 25 43 46 22 8 4 7 11 15 16 13 12 20 26 22 6 355 350 350 348 341 331 313 207 186 179 174 168 162 156 150 146 142 137 129 120 111 102 94 87 80 73 67 60 55 49 46 49 54 58 61 60 60 62 69 78 86 91 94 95 96 97 98 100 101 103 104 104 105 104 104 102 99 97 95 94 92 91
56 45 20 14 25 41 47 12 14 25 35 21 9 7 16 19 21 20 19 16 18 18 10 357 349 345 342 343 341 338 334 319 254 201 187 175 166 158 152 147 142 137 130 121 113 105 97 91 85 79 73 67 62 59 57 62 68 73 74 73 72 73 77 83 89 94 97 99 101 102 104 105 106 106 106 106 106 106 105 104 103 101 100 97 95 92
26 51 36 17 5 352 332 12 18 20 23 16 9 9 26 30 28 23 24 24 19 8 350 341 337 335 333 332 331 330 330 324 308 263 210 183 168 159 151 146 140 135 129 123 116 109 102 96 90 85 80 76 72 70 69 76 82 86 87 85 84 83 85 88 93 97 101 103 105 107 108 109 109 109 109 109 109 109 108 107 105 103 100 96 91 85
328 50 65 53 349 296 308 352 19 24 17 5 358 4 45 47 37 25 29 26 11 347 321 311 312 318 327 326 324 323 321 317 309 287 228 184 167 156 148 143 138 134 129 124 119 114 108 103 98 93 88 84 81 79 80 86 91 94 96 94 93 92 91 92 93 95 97 99 100 101 101 101 102 103 106 107 109 110 110 108 106 103 99 93 86 78
312 31 55 37 263 268 296 319 8 59 46 340 322 315 55 59 21 9 20 8 344 324 311 303 306 319 336 336 330 325 320 312 301 275 212 175 161 152 145 140 136 133 130 126 122 118 113 109 105 100 95 91 88 85 85 88 92 96 99 100 100 99 98 96 95 94 93 91 90 90 89 88 89 91 93 96 99 103 105 107 106 104 100 94 87 77
323 327 321 296 296 302 307 294 245 173 146 243 284 286 280 276 283 309 344 356 349 342 333 322 326 339 353 348 340 333 326 314 296 251 190 164 153 146 142 138 135 133 130 128 125 121 117 113 109 105 101 96 92 89 87 88 90 94 98 101 103 104 103 102 100 98 94 91 89 87 84 83 82 81 81 82 84 87 92 96 98 99 98 93 87 78
308 305 299 276 274 290 309 306 301 137 130 160 240 270 280 275 265 246 210 13 10 6 358 347 343 345 351 349 346 341 336 326 315 177 153 148 145 142 139 137 135 133 132 130 127 124 120 116 113 109 105 100 96 92 89 88 89 91 95 100 103 106 107 107 106 103 101 98 94 91 87 84 81 79 77 74 73 74 75 76 79 81 81 79 76 70
280 281 283 273 257 231 248 277 301 72 86 123 200 249 270 275 274 263 226 175 67 33 23 11 356 345 339 344 346 346 342 342 4 76 116 122 129 134 133 133 133 134 133 132 129 126 123 120 117 114 110 106 101 96 93 91 90 91 94 98 102 105 108 108 108 107 106 103 100 97 93 89 85 81 78 74 71 68 64 61 59 57 55 53 49 44
263 262 264 264 261 182 169 219 226 242 49 44 283 259 249 251 257 260 253 216 138 67 37 25 10 352 338 338 341 345 348 352 8 41 84 101 113 120 122 126 130 133 134 133 131 129 126 124 122 119 116 112 108 104 100 96 94 94 94 97 100 103 105 106 107 107 107 106 105 102 99 96 91 86 81 76 71 66 60 54 47 41 36 28 19 7
256 258 254 260 277 298 259 244 253 27 44 18 295 275 260 243 237 240 249 232 119 80 50 26 15 3 345 333 333 339 347 357 6 16 35 60 78 94 111 121 128 131 133 132 131 131 130 129 128 126 123 121 118 115 111 107 104 101 98 98 99 101 102 105 106 107 108 108 107 105 103 100 96 92 85 80 74 67 60 51 42 32 22 8 353 335
283 281 279 283 276 262 253 251 265 358 101 209 235 251 263 265 255 224 174 70 64 72 93 47 6 345 329 330 332 337 343 351 357 7 18 23 22 27 59 113 124 126 127 126 129 132 134 133 132 131 130 129 127 125 123 120 117 113 110 108 107 107 108 110 110 111 112 111 110 109 107 106 103 100 94 88 80 72 63 53 40 23 4 343 325 310
286 284 277 264 257 250 245 234 228 220 210 206 212 225 254 311 356 42 75 62 44 34 105 85 12 324 309 334 345 346 344 347 355 6 19 19 6 356 354 78 117 119 116 117 122 129 133 132 132 133 135 134 132 131 132 130 129 128 128 127 126 125 125 124 123 122 120 119 119 119 118 117 116 114 112 105 97 86 74 58 34 357 324 309 300 293
261 260 256 253 250 248 249 239 232 222 209 189 181 249 332 351 17 51 87 96 68 337 44 57 7 321 307 351 2 358 354 358 6 14 19 16 5 355 345 4 94 109 110 115 116 114 112 112 118 126 132 136 138 141 142 141 143 145 145 147 147 146 144 141 138 135 133 133 133 134 135 134 134 134 132 128 121 110 96 66 322 294 285 285 285 283
251 253 253 256 259 263 268 271 268 248 140 109 102 70 28 7 9 73 130 140 146 138 56 34 4 341 329 37 37 25 10 10 17 24 27 11 5 359 350 359 59 100 98 100 94 79 61 69 88 108 122 139 146 150 154 155 158 160 161 162 161 159 156 153 150 147 145 145 146 148 151 153 155 156 156 155 153 155 173 249 274 279 279 281 281 281
260 264 268 274 277 280 285 330 12 86 105 102 89 71 55 353 316 264 160 147 147 148 136 107 65 351 320 3 32 33 20 17 26 38 39 10 360 357 353 5 48 91 90 84 73 58 43 50 61 86 118 148 156 160 164 167 170 173 173 172 170 167 163 161 159 158 158 159 161 164 168 173 177 180 183 185 190 200 222 251 270 278 281 282 282 280
248 249 252 256 261 269 305 356 356 350 69 98 88 39 13 352 340 330 249 154 157 163 168 153 155 174 247 283 342 13 13 6 26 63 63 10 351 350 356 9 32 61 80 78 66 47 38 38 44 59 102 168 170 171 172 176 179 181 181 179 177 173 171 170 169 169 170 172 176 181 187 193 199 203 206 209 214 221 234 251 266 276 282 284 283 279
255 251 249 252 261 281 339 357 346 325 320 181 154 123 359 341 338 333 302 214 180 172 168 170 180 190 193 212 282 351 356 340 357 94 115 57 341 345 354 12 26 40 65 78 71 49 32 21 13 9 7 194 188 184 182 183 186 187 188 186 184 182 179 179 180 181 183 186 191 196 202 209 214 220 224 226 229 234 240 251 263 273 279 280 279 276
275 277 285 286 301 331 357 8 4 352 323 171 151 146 174 240 298 302 284 276 250 195 160 177 191 191 133 205 299 326 335 336 360 106 143 153 325 339 351 24 37 44 54 63 57 37 37 26 11 356 342 266 212 197 190 189 190 192 193 192 191 189 188 189 191 193 197 201 205 210 215 220 225 230 234 237 239 241 244 251 259 267 273 275 274 272
275 300 353 6 14 19 14 8 4 2 11 64 104 128 176 188 226 250 255 259 265 264 217 210 159 75 76 154 299 320 332 354 50 117 150 162 216 319 349 40 69 79 71 50 18 20 37 37 17 353 336 290 243 216 203 198 197 198 198 197 196 195 195 197 200 204 208 212 217 221 226 229 233 237 241 244 245 247 247 250 254 260 266 269 269 268
211 18 27 28 30 26 14 358 353 355 14 63 102 157 195 195 219 232 231 227 232 237 264 58 60 64 79 188 297 311 328 13 85 122 132 180 226 261 336 39 98 128 193 206 224 308 30 46 13 311 295 275 258 241 225 214 209 206 203 201 199 199 200 203 207 212 216 221 225 229 233 235 238 241 244 248 249 250 249 250 251 255 259 263 265 265
113 84 56 47 42 31 360 334 333 343 10 39 53 55 80 98 264 267 254 64 89 89 82 78 77 71 67 358 309 308 317 332 73 110 117 186 220 245 307 31 122 172 219 200 177 162 164 181 237 260 266 258 255 251 243 232 224 217 211 207 205 204 206 209 214 218 223 227 231 234 237 239 240 243 245 249 251 251 250 248 248 249 253 257 261 262
90 87 79 79 92 134 271 289 304 336 36 61 71 75 74 73 71 67 60 64 75 87 100 110 110 98 48 228 283 306 302 295 333 85 106 198 222 239 279 98 168 198 230 191 151 144 160 208 229 238 249 247 248 248 246 243 236 229 222 216 213 212 213 217 220 224 228 231 234 237 239 240 241 243 246 248 251 251 250 247 245 245 248 253 257 260
91 96 109 129 148 160 202 283 325 54 91 94 98 101 102 96 93 90 83 84 91 102 114 113 111 117 239 224 250 294 289 291 322 91 116 193 227 261 267 255 183 196 235 194 116 123 150 211 230 232 229 239 241 242 243 242 240 236 231 226 223 222 222 224 226 229 232 234 236 238 239 240 241 242 244 247 249 250 249 245 242 241 243 248 254 259
88 91 93 90 83 75 62 46 47 62 88 102 110 112 106 92 83 76 67 75 92 105 107 107 136 198 207 267 282 269 252 269 271 135 132 144 142 299 278 291 250 205 267 333 40 129 167 219 230 227 216 228 234 237 238 238 238 237 235 232 230 229 229 230 232 233 235 237 238 239 239 240 240 241 243 245 247 247 246 242 239 237 238 243 251 259
80 79 77 77 75 72 65 58 54 57 68 83 95 103 91 67 62 64 65 89 115 116 113 138 201 222 193 252 269 260 241 227 220 201 145 115 125 210 249 275 289 312 315 309 275 219 205 221 225 223 216 218 224 229 232 234 235 235 236 235 235 235 235 235 236 237 238 239 239 239 239 239 239 240 241 244 245 245 244 240 236 234 235 238 247 261
81 77 75 75 75 74 70 65 60 57 55 59 61 59 51 54 64 85 193 192 154 127 135 173 208 225 200 210 241 257 262 230 214 200 154 113 135 221 226 266 301 43 20 302 274 247 227 228 227 225 222 216 216 222 229 232 233 234 236 237 238 238 239 240 240 241 241 240 240 239 238 238 238 238 240 241 242 242 240 236 233 231 230 231 235 266
84 79 73 71 69 66 63 59 56 55 53 50 46 43 41 49 59 79 228 173 133 126 163 198 212 215 193 194 224 269 291 264 226 194 141 124 145 213 174 311 18 75 83 320 304 290 268 260 258 260 261 231 213 217 235 235 237 239 241 242 243 244 244 245 244 244 243 242 241 240 238 237 237 237 238 239 240 239 237 233 229 226 220 218 219 237
78 70 62 58 56 54 52 48 46 47 48 49 48 46 42 46 49 41 359 71 107 133 186 214 218 206 180 173 273 311 298 277 255 203 131 132 140 156 108 80 85 154 125 52 329 314 301 303 314 327 334 347 7 17 315 265 270 274 262 255 254 254 251 250 248 247 245 243 241 240 238 237 236 236 236 237 238 237 235 230 225 215 193 195 209 236
87 71 51 41 40 41 43 41 39 38 40 45 46 45 42 43 43 40 32 47 77 131 187 218 222 207 174 150 157 288 275 266 259 231 121 128 142 149 132 138 184 226 156 125 113 304 301 310 319 328 341 353 356 353 341 353 11 9 357 293 278 267 259 254 251 249 247 244 242 240 238 237 236 235 235 236 236 236 234 230 222 207 169 179 202 234
121 112 100 55 39 40 45 45 40 34 34 37 37 36 37 40 42 43 44 49 62 84 128 213 242 226 172 159 174 219 236 250 245 221 127 120 115 117 133 137 153 202 18 101 124 166 261 291 306 317 331 338 332 316 291 260 222 195 184 226 260 263 258 255 252 250 248 245 243 240 239 237 236 235 235 235 235 235 233 229 221 206 169 175 191 215
137 136 139 121 76 58 59 56 52 45 40 37 32 31 32 36 40 44 48 51 60 74 87 80 48 16 21 87 95 110 229 251 236 209 146 117 105 89 92 109 115 100 24 43 72 148 212 245 282 304 316 315 305 289 276 253 228 202 180 197 227 251 258 255 253 251 248 245 244 243 241 239 238 237 236 235 234 234 232 228 221 207 178 171 179 197
145 150 151 137 113 82 67 66 68 67 63 53 44 39 36 37 39 41 42 46 55 70 94 103 106 100 77 44 26 10 325 274 260 231 131 114 114 123 104 111 120 118 82 46 27 355 258 248 265 292 307 307 300 289 270 252 235 210 175 186 208 235 257 255 253 249 245 241 243 245 244 243 241 240 237 235 233 232 231 227 219 208 193 181 176 182
154 165 167 161 153 147 140 117 109 106 104 92 76 58 55 52 46 41 37 39 45 59 87 114 129 137 136 132 124 149 271 268 273 280 102 115 122 128 122 161 161 148 132 137 141 192 276 265 245 240 293 310 307 297 281 268 257 240 186 189 205 222 241 242 242 239 235 228 230 237 242 244 243 241 238 234 231 230 229 226 220 212 202 192 185 182
171 187 190 180 172 168 171 171 165 157 158 171 171 138 95 79 65 52 37 33 33 39 55 86 122 140 147 150 156 172 213 245 266 288 92 121 126 129 139 193 184 159 143 152 162 175 216 269 263 239 198 299 300 299 298 313 336 354 336 291 264 253 253 242 228 218 220 217 221 225 229 231 233 234 235 231 229 227 226 225 222 216 208 200 195 192
189 205 208 190 178 173 177 178 177 174 175 185 190 184 156 127 104 78 36 27 23 23 25 30 42 83 129 148 159 175 201 227 256 306 68 120 127 131 147 194 187 162 149 158 167 169 155 293 319 325 331 244 254 272 294 328 345 344 304 288 278 274 274 268 239 195 197 209 216 220 222 220 220 223 227 228 227 226 225 225 223 219 214 209 204 200
198 212 217 198 181 170 172 178 183 183 179 178 178 178 172 158 148 140 113 52 30 18 10 7 3 360 15 84 154 182 201 216 271 353 57 115 126 131 145 180 211 186 160 161 157 150 136 151 267 291 285 258 251 251 259 301 308 286 277 282 281 276 272 270 257 220 201 211 220 225 223 215 210 210 217 223 223 222 224 226 225 223 220 217 212 208
202 214 220 207 187 174 170 178 184 183 175 168 165 164 157 145 138 136 140 131 141 183 217 229 295 311 325 309 262 232 217 218 222 212 112 125 129 133 140 159 202 223 180 149 141 138 137 157 181 205 236 264 276 283 296 285 250 250 274 315 315 298 271 259 248 236 218 214 225 239 244 232 210 198 203 208 208 211 216 222 226 226 224 224 220 216
200 210 219 208 193 178 171 173 172 166 154 144 137 130 119 111 99 72 347 311 272 255 246 248 282 292 284 270 257 245 229 216 205 191 165 149 140 137 140 156 173 191 166 124 122 126 135 155 180 196 202 227 266 293 307 294 261 224 162 353 306 283 262 243 233 227 217 206 210 224 248 260 227 200 199 200 200 202 205 210 219 224 224 224 223 222
193 203 216 204 180 156 145 146 143 137 128 120 113 106 108 111 104 64 343 334 320 312 312 348 341 325 310 290 270 252 231 218 206 193 173 158 144 134 134 148 155 153 133 106 103 115 135 155 185 217 223 227 256 278 283 274 254 221 173 189 229 250 250 233 222 216 216 215 215 216 224 235 232 216 205 204 203 201 196 195 205 218 226 223 218 214
192 196 199 176 153 138 128 115 108 104 103 103 111 130 159 160 159 154 145 298 293 282 257 79 343 325 317 305 293 278 253 228 209 195 177 159 143 131 126 136 141 136 124 105 96 114 161 173 194 216 227 229 257 279 284 282 275 257 211 205 225 268 293 267 242 217 208 220 227 228 224 228 229 221 209 211 215 214 199 193 200 209 219 223 221 217
192 187 168 148 140 133 121 107 98 92 90 97 133 178 191 179 170 163 160 187 222 230 208 177 166 218 304 303 302 300 295 287 261 209 180 159 143 133 130 137 136 129 122 116 122 247 250 218 216 219 218 206 221 250 268 281 289 286 258 216 193 195 312 293 274 234 208 215 220 223 222 221 220 219 212 211 216 217 210 202 205 209 215 217 220 221
175 153 126 123 120 114 103 103 109 119 124 141 182 215 224 196 175 163 157 180 214 224 203 164 128 98 341 296 296 300 307 323 333 337 294 186 170 158 152 148 136 129 128 136 151 182 268 269 253 239 221 206 218 237 252 262 270 274 266 233 201 193 217 235 228 210 204 214 219 220 219 217 216 219 231 233 233 226 216 212 214 218 220 216 215 216
143 128 117 118 116 113 117 137 146 148 145 160 190 226 246 216 178 162 156 168 212 248 217 138 96 56 334 299 295 299 311 329 335 335 327 276 216 191 172 160 144 133 133 147 155 160 165 221 251 259 256 222 224 233 242 248 254 260 262 253 239 227 226 228 211 195 197 209 217 220 218 208 200 206 237 243 241 235 224 218 220 225 229 223 215 211
134 131 130 132 136 147 162 165 160 148 141 157 201 238 243 209 167 151 153 151 169 248 245 140 117 105 284 289 297 308 316 321 322 320 315 309 296 258 187 173 162 151 147 158 162 163 167 183 203 237 328 320 274 250 237 235 240 248 256 257 258 259 262 257 231 205 198 204 212 216 212 196 193 205 225 230 234 235 233 222 218 220 224 224 219 213
152 150 148 148 153 161 172 166 155 146 145 165 201 227 229 187 154 138 135 137 149 202 266 228 186 217 250 266 282 296 302 300 297 294 291 291 293 297 289 283 222 168 161 175 182 182 183 180 175 169 151 279 276 268 255 239 233 235 244 248 253 258 263 258 242 218 201 203 206 206 195 186 199 216 226 228 233 237 240 232 226 222 221 221 222 222
171 165 158 152 154 159 167 163 157 154 160 174 193 210 219 193 173 159 144 146 147 155 283 303 292 273 265 265 264 266 273 279 279 274 261 250 241 237 243 354 359 353 345 328 301 269 237 211 197 189 186 209 239 255 260 248 237 232 236 239 242 247 254 255 248 228 205 205 202 195 183 187 201 213 220 227 234 238 238 237 235 231 225 224 224 226
173 168 161 152 151 157 168 167 163 163 175 187 193 202 216 212 192 176 160 156 153 155 202 271 283 283 280 276 273 272 272 275 275 272 254 217 187 159 126 89 49 21 3 351 340 323 301 267 238 221 210 213 226 242 254 251 245 239 237 238 239 241 248 253 252 240 217 209 204 199 193 198 203 205 206 220 232 239 239 239 238 236 231 226 226 228
175 169 162 156 158 164 172 169 170 173 185 193 196 198 201 192 164 151 151 149 149 159 192 240 265 275 278 278 281 284 285 286 288 288 282 217 156 140 132 117 92 58 21 3 351 339 327 300 266 242 226 219 220 227 242 248 249 248 246 244 242 240 245 250 251 244 225 212 205 201 200 205 205 201 199 216 231 241 244 243 241 237 231 225 225 228
178 173 165 164 167 173 178 178 181 186 193 196 197 196 191 177 157 143 138 145 156 174 201 227 250 265 273 277 281 285 287 290 292 293 290 247 150 141 141 134 121 102 66 22 353 341 336 327 308 277 244 224 217 215 224 233 239 244 248 246 242 239 241 246 248 245 234 217 203 195 195 202 204 203 202 214 229 242 248 247 243 237 227 220 221 225